(191157) = 2001 BQ35 = 2002 JH38

Discovered at Palomar on 2002-05-09 by NEAT.

Orbit

Orbit type: Main Belt

Note: WebGL enabled browser required.

epoch2024-03-31.0
epoch JD2460400.5
perihelion date2023-01-02.24235
perihelion JD2459946.74235
argument of perihelion (°)265.43528
ascending node (°)227.32828
inclination (°)4.00236
eccentricity0.1512637
perihelion distance (AU)2.2423196
Tisserand w.r.t. Jupiter3.4
ΔV w.r.t. Earth (km/sec)9.5
semimajor axis (AU)2.6419511
mean anomaly (°)104.14559
mean daily motion (°/day)0.22951810
aphelion distance (AU)3.042
period (years)4.29
P-vector [x]-0.67718705
P-vector [y]0.69974433
P-vector [z]0.22754246
Q-vector [x]-0.73401914
Q-vector [y]-0.62085803
Q-vector [z]-0.27522936
absolute magnitude16.21
phase slope0.15
uncertainty0
referenceE2024-FA5
observations used598
oppositions16
arc length (days)8178
first opposition used2000
last opposition used2023
residual rms (arc-secs)0.68
perturbers coarse indicatorM-v
perturbers precise indicator003Ek
first observation date used2000-12-29.0
last observation date used2023-05-21.0
computer nameMPCLINUX
JD of orbit computation2456760.657719
perihelion JD uncertainty (days)9.1191E-05
argument of perihelion uncertainty (°)9.2839E-05
ascending node uncertainty (°)8.9596E-05
inclination uncertainty (°)5.8941E-06
eccentricity uncertainty 6.0256E-08
perihelion distance uncertainty (AU)1.6512E-07
Minimum Orbit Intersection Distances (in AU)
for orbit epoch: 2460400.5, reference: E2024-FA5
Mercury1.90772
Venus1.53127
Earth1.26144
Mars0.61756
Jupiter2.0242
Saturn6.59425
Uranus16.1162
Neptune26.9966

Observations

599 total observations over interval: 2000 12 29.17350 – 2023 05 21.162266
These data are available for download (format description).

Date (UT) J2000 RA J2000 Dec Magn Location Ref
2000 12 29.17350 04 02 35.90 +17 39 51.0 18.9 R 699 – Lowell Observatory-LONEOS MPS 57126
2000 12 29.19769 04 02 35.18 +17 39 48.7   699 – Lowell Observatory-LONEOS MPS 57126
2000 12 29.22188 04 02 34.33 +17 39 44.6   699 – Lowell Observatory-LONEOS MPS 57126
2000 12 29.24611 04 02 33.60 +17 39 42.5   699 – Lowell Observatory-LONEOS MPS 57126
2001 01 21.15990 03 59 24.86 +17 19 57.5 20.4 V 691 – Steward Observatory, Kitt Peak-Spacewatch MPS 25713
2001 01 21.17799 03 59 25.07 +17 19 58.3 20.4 V 691 – Steward Observatory, Kitt Peak-Spacewatch MPS 25713
2001 01 21.19610 03 59 25.22 +17 19 59.8 20.2 V 691 – Steward Observatory, Kitt Peak-Spacewatch MPS 25713
2001 01 24.16842 04 00 14.13 +17 21 52.4 20.0 V 691 – Steward Observatory, Kitt Peak-Spacewatch MPS 25713
2001 01 24.24189 04 00 15.44 +17 21 55.4 20.0 V 691 – Steward Observatory, Kitt Peak-Spacewatch MPS 25713
2001 01 24.30956 04 00 16.65 +17 21 57.9 20.6 V 691 – Steward Observatory, Kitt Peak-Spacewatch MPS 25713
2002 02 16.50845 14 35 22.49 -17 42 15.9 21.3 V 291 – LPL/Spacewatch II MPS 57657
2002 02 16.52913 14 35 23.21 -17 42 18.9 21.2 V 291 – LPL/Spacewatch II MPS 57657
2002 02 16.54811 14 35 23.88 -17 42 21.2 20.8 V 291 – LPL/Spacewatch II MPS 57657
2002 04 14.34178 14 27 17.20 -16 15 30.2 19.2   704 – Lincoln Laboratory ETS, New Mexico MPS 57657
2002 04 14.35584 14 27 16.48 -16 15 25.3 19.5   704 – Lincoln Laboratory ETS, New Mexico MPS 57657
2002 04 14.37000 14 27 15.77 -16 15 20.3 19.4   704 – Lincoln Laboratory ETS, New Mexico MPS 57657
2002 04 14.38408 14 27 15.06 -16 15 16.1 19.1   704 – Lincoln Laboratory ETS, New Mexico MPS 57657
2002 04 14.39814 14 27 14.38 -16 15 11.0 19.4   704 – Lincoln Laboratory ETS, New Mexico MPS 57657
2002 05 09.28432 14 06 14.58 -13 46 00.8 19.7   644 – Palomar Mountain/NEAT MPS 55343
2002 05 09.30751 14 06 13.52 -13 45 52.1 20.0   644 – Palomar Mountain/NEAT MPS 55343
2002 05 09.33771 14 06 12.05 -13 45 42.1 19.7   644 – Palomar Mountain/NEAT MPS 55343
2002 05 10.22226 14 05 32.10 -13 40 32.1 19.8   644 – Palomar Mountain/NEAT MPS 55343
2002 05 10.23275 14 05 31.58 -13 40 28.2 19.9   644 – Palomar Mountain/NEAT MPS 55343
2002 05 10.24438 14 05 31.06 -13 40 24.4 19.8   644 – Palomar Mountain/NEAT MPS 55343
2002 05 11.23685 14 04 46.74 -13 34 42.6 20.1   704 – Lincoln Laboratory ETS, New Mexico MPS 55343
2002 05 11.25147 14 04 46.10 -13 34 35.9 19.1   704 – Lincoln Laboratory ETS, New Mexico MPS 55343
2002 05 11.26618 14 04 45.48 -13 34 31.0 19.7   704 – Lincoln Laboratory ETS, New Mexico MPS 55343
2002 05 11.28082 14 04 44.76 -13 34 25.4 19.9   704 – Lincoln Laboratory ETS, New Mexico MPS 55343
2002 05 18.28150 14 00 02.90 -12 56 34.5 19.8   644 – Palomar Mountain/NEAT MPS 55343
2002 05 18.30247 14 00 02.09 -12 56 27.7 19.8   644 – Palomar Mountain/NEAT MPS 55343
2002 05 18.32705 14 00 01.20 -12 56 20.4 19.7   644 – Palomar Mountain/NEAT MPS 55343
2002 05 19.20755 13 59 30.10 -12 51 57.4 20.2   644 – Palomar Mountain/NEAT MPS 55343
2002 05 19.21844 13 59 29.73 -12 51 54.0 19.9   644 – Palomar Mountain/NEAT MPS 55343
2002 05 19.22910 13 59 29.29 -12 51 51.4 20.0   644 – Palomar Mountain/NEAT MPS 55343
2002 06 06.16289 13 52 48.85 -11 45 09.8 21.1 V 291 – LPL/Spacewatch II MPS 57657
2002 06 06.18337 13 52 48.56 -11 45 06.7 21.1 V 291 – LPL/Spacewatch II MPS 57657
2002 06 06.20447 13 52 48.40 -11 45 03.4 20.6 V 291 – LPL/Spacewatch II MPS 57657
2004 10 07.35139 02 13 38.04 +15 37 14.9 20.0 V 691 – Steward Observatory, Kitt Peak-Spacewatch MPS 116601
2004 10 07.37899 02 13 36.81 +15 37 07.1 20.0 V 691 – Steward Observatory, Kitt Peak-Spacewatch MPS 116601
2004 10 07.40541 02 13 35.66 +15 36 59.9 20.0 V 691 – Steward Observatory, Kitt Peak-Spacewatch MPS 116601
2004 10 11.35856 02 10 38.93 +15 17 36.1 19.9 V 691 – Steward Observatory, Kitt Peak-Spacewatch MPS 116601
2004 10 11.38980 02 10 37.40 +15 17 26.7 19.9 V 691 – Steward Observatory, Kitt Peak-Spacewatch MPS 116601
2004 10 11.41774 02 10 36.05 +15 17 18.1 19.8 V 691 – Steward Observatory, Kitt Peak-Spacewatch MPS 116601
2004 10 12.83602 02 09 29.18 +15 09 51.3 19.0 R 152 – Moletai Astronomical Observatory MPS 117596
2004 10 12.85556 02 09 28.27 +15 09 43.6 19.1 R 152 – Moletai Astronomical Observatory MPS 117596
2004 10 12.87308 02 09 27.43 +15 09 39.2 19.0 R 152 – Moletai Astronomical Observatory MPS 117596
2004 10 15.32046 02 07 27.83 +14 56 20.1 19.8 V 691 – Steward Observatory, Kitt Peak-Spacewatch MPS 116601
2004 10 15.34745 02 07 26.44 +14 56 11.2 19.8 V 691 – Steward Observatory, Kitt Peak-Spacewatch MPS 116601
2004 10 15.37495 02 07 25.03 +14 56 01.8 19.8 V 691 – Steward Observatory, Kitt Peak-Spacewatch MPS 116601
2004 10 15.87957 02 07 00.03 +14 53 11.4 19.1 R 152 – Moletai Astronomical Observatory MPS 118388
2004 10 15.89808 02 06 58.89 +14 53 03.1 18.9 R 152 – Moletai Astronomical Observatory MPS 118388
2005 03 11.11201 02 56 12.12 +15 40 05.3 20.6 R G96 – Mt. Lemmon Survey MPS 127869
2005 03 11.11595 02 56 12.46 +15 40 06.7 20.7 R G96 – Mt. Lemmon Survey MPS 127869
2005 03 11.11990 02 56 12.85 +15 40 08.7 21.1 R G96 – Mt. Lemmon Survey MPS 127869
2005 03 11.12383 02 56 13.31 +15 40 09.9 18.7 R G96 – Mt. Lemmon Survey MPS 127869
2006 04 06.23275 11 25 41.53 -01 29 35.7 18.8   704 – Lincoln Laboratory ETS, New Mexico MPS 168226
2006 04 06.25354 11 25 40.73 -01 29 27.3 19.2   704 – Lincoln Laboratory ETS, New Mexico MPS 168226
2006 04 06.26370 11 25 40.37 -01 29 24.8 19.3   704 – Lincoln Laboratory ETS, New Mexico MPS 168226
2006 04 06.27371 11 25 40.04 -01 29 21.4 19.5   704 – Lincoln Laboratory ETS, New Mexico MPS 168226
2008 09 04.30158 00 21 24.38 +07 11 44.5 20.4 V 691 – Steward Observatory, Kitt Peak-Spacewatch MPS 255186
2008 09 04.31913 00 21 23.71 +07 11 40.3 20.2 V 691 – Steward Observatory, Kitt Peak-Spacewatch MPS 255186
2008 09 04.33671 00 21 22.97 +07 11 35.8 20.3 V 691 – Steward Observatory, Kitt Peak-Spacewatch MPS 255186
2008 09 05.30947 00 20 45.29 +07 07 34.8 20.4 V 691 – Steward Observatory, Kitt Peak-Spacewatch MPS 255186
2008 09 05.33396 00 20 44.30 +07 07 29.4 20.3 V 691 – Steward Observatory, Kitt Peak-Spacewatch MPS 255186
2008 09 05.35154 00 20 43.58 +07 07 25.1 20.2 V 691 – Steward Observatory, Kitt Peak-Spacewatch MPS 255186
2008 09 23.31260 00 07 03.21 +05 32 00.3 20.0 V G96 – Mt. Lemmon Survey MPS 257683
2008 09 23.32059 00 07 02.82 +05 31 57.2 19.8 V G96 – Mt. Lemmon Survey MPS 257683
2008 09 23.32866 00 07 02.38 +05 31 54.6 20.1 V G96 – Mt. Lemmon Survey MPS 257683
2008 09 23.33664 00 07 01.99 +05 31 51.6 20.1 V G96 – Mt. Lemmon Survey MPS 257683
2008 09 23.37022 00 07 00.26 +05 31 39.0 20.1 V G96 – Mt. Lemmon Survey MPS 257683
2008 09 23.37861 00 06 59.83 +05 31 36.1 20.1 V G96 – Mt. Lemmon Survey MPS 257683
2008 09 23.38697 00 06 59.40 +05 31 33.0 20.2 V G96 – Mt. Lemmon Survey MPS 257683
2008 09 23.39538 00 06 58.96 +05 31 29.9 20.2 V G96 – Mt. Lemmon Survey MPS 257683
2009 09 18.47357 07 30 50.96 +19 24 33.4 20.7 V 691 – Steward Observatory, Kitt Peak-Spacewatch MPS 295682
2009 09 18.48624 07 30 52.23 +19 24 29.8 20.6 V 691 – Steward Observatory, Kitt Peak-Spacewatch MPS 295682
2009 09 18.49886 07 30 53.53 +19 24 25.4 20.7 V 691 – Steward Observatory, Kitt Peak-Spacewatch MPS 295682
2010 01 07.33356 08 56 55.21 +10 27 47.7 19.0 V 703 – Catalina Sky Survey MPS 310041
2010 01 07.33910 08 56 54.99 +10 27 48.1 19.1 V 703 – Catalina Sky Survey MPS 310041
2010 01 07.34466 08 56 54.85 +10 27 47.7 19.3 V 703 – Catalina Sky Survey MPS 310041
2010 01 07.35018 08 56 54.56 +10 27 48.0 18.8 V 703 – Catalina Sky Survey MPS 310041
2010 01 08.28938 08 56 18.64 +10 28 13.5 19.2 V 691 – Steward Observatory, Kitt Peak-Spacewatch MPS 310041
2010 01 08.30711 08 56 17.85 +10 28 14.1 19.3 V 691 – Steward Observatory, Kitt Peak-Spacewatch MPS 310041
2010 01 08.32485 08 56 17.12 +10 28 14.1 20.5 V 691 – Steward Observatory, Kitt Peak-Spacewatch MPS 310041
2010 01 10.33196 08 54 55.44 +10 29 38.3 19.1   704 – Lincoln Laboratory ETS, New Mexico MPS 311067
2010 01 10.34477 08 54 54.89 +10 29 39.0 19.7   704 – Lincoln Laboratory ETS, New Mexico MPS 311067
2010 01 10.35758 08 54 54.33 +10 29 39.3 19.3   704 – Lincoln Laboratory ETS, New Mexico MPS 311067
